| time (UTC) | temp F | wind direction | speed MPH | gust MPH | rain 1hr in | rain 24hr in | rain mn in | humidity % | barometer mb |
| 20260504110500 | 55 | 181 | 12.0 | 14.0 | 0.00 | 0.00 | 0.00 | 68 | 1015.7 |
| 20260504100459 | 55 | 195 | 11.0 | 15.0 | 0.00 | 0.00 | 0.00 | 72 | 1015.6 |
| 20260504081500 | 55 | 184 | 14.0 | 17.0 | 0.00 | 0.00 | 0.00 | 70 | 1015.5 |
| 20260504081000 | 55 | 164 | 13.0 | 19.0 | 0.00 | 0.00 | 0.00 | 70 | 1015.6 |
| 20260504080504 | 55 | 171 | 17.0 | 19.0 | 0.00 | 0.00 | 0.00 | 68 | 1015.7 |
| 20260504050500 | 54 | 158 | 8.0 | 14.0 | 0.00 | 0.00 | 0.00 | 73 | 1015.8 |
| 20260504050004 | 54 | 154 | 11.0 | 14.0 | 0.00 | 0.00 | 0.00 | 73 | 1016.0 |
| 20260504045505 | 54 | 176 | 14.0 | 18.0 | 0.00 | 0.00 | 0.00 | 73 | 1016.0 |
| 20260504045004 | 54 | 178 | 15.0 | 18.0 | 0.00 | 0.00 | 0.00 | 72 | 1016.1 |
| 20260504044505 | 53 | 176 | 15.0 | 16.0 | 0.00 | 0.00 | 0.00 | 71 | 1016.0 |
| 20260504044005 | 53 | 173 | 13.0 | 17.0 | 0.00 | 0.00 | 0.00 | 70 | 1016.0 |
| 20260504043005 | 54 | 162 | 12.0 | 15.0 | 0.00 | 0.00 | 0.00 | 68 | 1016.1 |
| 20260504042504 | 53 | 183 | 14.0 | 15.0 | 0.00 | 0.00 | 0.00 | 67 | 1016.0 |
| 20260504042005 | 53 | 186 | 14.0 | 15.0 | 0.00 | 0.00 | 0.00 | 67 | 1016.0 |
| 20260504041504 | 54 | 178 | 13.0 | 17.0 | 0.00 | 0.00 | 0.00 | 67 | 1015.9 |
| 20260504041005 | 54 | 179 | 12.0 | 13.0 | 0.00 | 0.00 | 0.00 | 67 | 1016.0 |
| 20260504040504 | 54 | 171 | 11.0 | 14.0 | 0.00 | 0.00 | 0.00 | 68 | 1015.7 |
| 20260504040004 | 54 | 184 | 12.0 | 14.0 | 0.00 | 0.00 | 0.00 | 69 | 1015.6 |
| 20260504035505 | 54 | 176 | 12.0 | 14.0 | 0.00 | 0.00 | 0.00 | 69 | 1015.6 |
| 20260504035004 | 54 | 180 | 12.0 | 14.0 | 0.00 | 0.00 | 0.00 | 70 | 1015.7 |
| 20260504034504 | 53 | 184 | 11.0 | 13.0 | 0.00 | 0.00 | 0.00 | 71 | 1015.6 |
| 20260504033504 | 52 | 182 | 10.0 | 11.0 | 0.00 | 0.00 | 0.00 | 73 | 1015.4 |
| 20260504033005 | 52 | 184 | 10.0 | 12.0 | 0.00 | 0.00 | 0.00 | 73 | 1015.5 |
| 20260504032504 | 52 | 181 | 7.0 | 11.0 | 0.00 | 0.00 | 0.00 | 72 | 1015.4 |
| 20260504032004 | 52 | 171 | 6.0 | 7.0 | 0.00 | 0.00 | 0.00 | 72 | 1015.4 |
| 20260504031505 | 52 | 157 | 6.0 | 7.0 | 0.00 | 0.00 | 0.00 | 72 | 1015.4 |
| 20260504031005 | 52 | 167 | 4.0 | 6.0 | 0.00 | 0.00 | 0.00 | 72 | 1015.4 |
| 20260504030504 | 52 | 151 | 4.0 | 7.0 | 0.00 | 0.00 | 0.00 | 71 | 1015.4 |
| 20260504030005 | 52 | 154 | 5.0 | 7.0 | 0.00 | 0.00 | 0.00 | 71 | 1015.4 |
| 20260504025504 | 52 | 158 | 2.0 | 5.0 | 0.00 | 0.00 | 0.00 | 70 | 1015.4 |
| 20260504025005 | 53 | 153 | 3.0 | 6.0 | 0.00 | 0.00 | 0.00 | 69 | 1015.3 |
| 20260504024504 | 53 | 164 | 2.0 | 7.0 | 0.00 | 0.00 | 0.00 | 68 | 1015.3 |
| 20260504024005 | 53 | 140 | 3.0 | 7.0 | 0.00 | 0.00 | 0.00 | 67 | 1015.4 |
| 20260504023504 | 52 | 153 | 5.0 | 7.0 | 0.00 | 0.00 | 0.00 | 67 | 1015.4 |
| 20260504023004 | 52 | 156 | 4.0 | 7.0 | 0.00 | 0.00 | 0.00 | 67 | 1015.4 |
| 20260504022504 | 52 | 142 | 3.0 | 5.0 | 0.00 | 0.00 | 0.00 | 66 | 1015.4 |
| 20260504022004 | 53 | 136 | 2.0 | 4.0 | 0.00 | 0.00 | 0.00 | 65 | 1015.4 |
| 20260504021505 | 53 | 125 | 1.0 | 5.0 | 0.00 | 0.00 | 0.00 | 66 | 1015.3 |
| 20260504021004 | 53 | 140 | 2.0 | 7.0 | 0.00 | 0.00 | 0.00 | 66 | 1015.3 |
| 20260504020005 | 53 | 146 | 1.0 | 4.0 | 0.00 | 0.00 | 0.00 | 66 | 1015.2 |
| 20260504015504 | 53 | 149 | 1.0 | 4.0 | 0.00 | 0.00 | 0.00 | 65 | 1015.3 |
| 20260504015005 | 53 | 159 | 2.0 | 5.0 | 0.00 | 0.00 | 0.00 | 63 | 1015.3 |
| 20260504014504 | 54 | 154 | 3.0 | 6.0 | 0.00 | 0.00 | 0.00 | 63 | 1015.4 |
| 20260504014004 | 54 | 163 | 2.0 | 6.0 | 0.00 | 0.00 | 0.00 | 65 | 1015.2 |
| 20260504013504 | 54 | 156 | 4.0 | 8.0 | 0.00 | 0.00 | 0.00 | 62 | 1015.2 |
| 20260504013004 | 54 | 146 | 4.0 | 8.0 | 0.00 | 0.00 | 0.00 | 63 | 1015.2 |
| 20260504012504 | 54 | 177 | 7.0 | 9.0 | 0.00 | 0.00 | 0.00 | 61 | 1015.0 |
| 20260504011504 | 54 | 190 | 6.0 | 8.0 | 0.00 | 0.00 | 0.00 | 60 | 1015.0 |
| 20260504010504 | 55 | 191 | 6.0 | 8.0 | 0.00 | 0.00 | 0.00 | 59 | 1014.9 |
| 20260504010005 | 55 | 196 | 6.0 | 8.0 | 0.00 | 0.00 | 0.00 | 58 | 1014.9 |
| 20260504005504 | 55 | 193 | 6.0 | 8.0 | 0.00 | 0.00 | 0.00 | 57 | 1014.9 |
| 20260504005004 | 56 | 186 | 7.0 | 8.0 | 0.00 | 0.00 | 0.00 | 59 | 1014.8 |
| 20260504004505 | 56 | 205 | 6.0 | 8.0 | 0.00 | 0.00 | 0.00 | 59 | 1014.8 |
| 20260504004004 | 55 | 192 | 6.0 | 8.0 | 0.00 | 0.00 | 0.00 | 58 | 1014.8 |
| 20260504003503 | 55 | 217 | 5.0 | 8.0 | 0.00 | 0.00 | 0.00 | 55 | 1014.7 |
| 20260504003004 | 56 | 219 | 4.0 | 7.0 | 0.00 | 0.00 | 0.00 | 54 | 1014.7 |
| 20260504002505 | 56 | 227 | 3.0 | 5.0 | 0.00 | 0.00 | 0.00 | 54 | 1014.5 |
| 20260504002004 | 56 | 213 | 3.0 | 5.0 | 0.00 | 0.00 | 0.00 | 52 | 1014.5 |
| 20260504001504 | 56 | 246 | 3.0 | 5.0 | 0.00 | 0.00 | 0.00 | 49 | 1014.5 |
| 20260504001004 | 57 | 234 | 3.0 | 5.0 | 0.00 | 0.00 | 0.00 | 47 | 1014.5 |
| 20260504000504 | 57 | 230 | 3.0 | 9.0 | 0.00 | 0.00 | 0.00 | 47 | 1014.2 |
| 20260504000005 | 57 | 239 | 5.0 | 9.0 | 0.00 | 0.00 | 0.00 | 47 | 1014.0 |
| 20260503235504 | 57 | 240 | 3.0 | 7.0 | 0.00 | 0.00 | 0.00 | 46 | 1014.0 |
| 20260503235004 | 57 | 243 | 4.0 | 7.0 | 0.00 | 0.00 | 0.00 | 46 | 1013.9 |
| 20260503233504 | 59 | 239 | 4.0 | 8.0 | 0.00 | 0.00 | 0.00 | 45 | 1013.8 |
| 20260503233004 | 59 | 236 | 5.0 | 9.0 | 0.00 | 0.00 | 0.00 | 43 | 1013.7 |
| 20260503232504 | 60 | 244 | 2.0 | 9.0 | 0.00 | 0.00 | 0.00 | 42 | 1013.8 |
| 20260503231504 | 61 | 258 | 4.0 | 8.0 | 0.00 | 0.00 | 0.00 | 40 | 1013.8 |
| 20260503231005 | 61 | 290 | 3.0 | 9.0 | 0.00 | 0.00 | 0.00 | 40 | 1013.9 |
| 20260503230504 | 61 | 294 | 5.0 | 9.0 | 0.00 | 0.00 | 0.00 | 38 | 1013.9 |
| 20260503230004 | 61 | 283 | 3.0 | 8.0 | 0.00 | 0.00 | 0.00 | 39 | 1013.9 |
| 20260503225504 | 61 | 277 | 4.0 | 9.0 | 0.00 | 0.00 | 0.00 | 39 | 1013.9 |
| 20260503223004 | 61 | 260 | 4.0 | 9.0 | 0.00 | 0.00 | 0.00 | 39 | 1013.8 |
| 20260503222504 | 61 | 302 | 2.0 | 9.0 | 0.00 | 0.00 | 0.00 | 37 | 1013.8 |
| 20260503221504 | 61 | 248 | 3.0 | 12.0 | 0.00 | 0.00 | 0.00 | 38 | 1014.0 |
| 20260503221004 | 61 | 231 | 8.0 | 12.0 | 0.00 | 0.00 | 0.00 | 36 | 1014.0 |
| 20260503220504 | 62 | 245 | 7.0 | 10.0 | 0.00 | 0.00 | 0.00 | 36 | 1014.0 |
| 20260503215504 | 62 | 274 | 7.0 | 11.0 | 0.00 | 0.00 | 0.00 | 36 | 1014.0 |
| 20260503215003 | 62 | 270 | 4.0 | 12.0 | 0.00 | 0.00 | 0.00 | 37 | 1014.0 |
| 20260503214504 | 62 | 309 | 6.0 | 12.0 | 0.00 | 0.00 | 0.00 | 37 | 1014.0 |
| 20260503214004 | 62 | 325 | 6.0 | 12.0 | 0.00 | 0.00 | 0.00 | 37 | 1014.0 |
| 20260503213504 | 62 | 263 | 6.0 | 14.0 | 0.00 | 0.00 | 0.00 | 37 | 1014.0 |
| 20260503213004 | 62 | 298 | 9.0 | 14.0 | 0.00 | 0.00 | 0.00 | 36 | 1014.1 |
| 20260503212004 | 62 | 277 | 6.0 | 12.0 | 0.00 | 0.00 | 0.00 | 38 | 1013.9 |
| 20260503211004 | 62 | 277 | 7.0 | 11.0 | 0.00 | 0.00 | 0.00 | 37 | 1014.0 |
| 20260503210504 | 62 | 244 | 7.0 | 16.0 | 0.00 | 0.00 | 0.00 | 36 | 1014.0 |
| 20260503210006 | 62 | 292 | 6.0 | 16.0 | 0.00 | 0.00 | 0.00 | 36 | 1014.1 |
| 20260503205505 | 62 | 327 | 10.0 | 13.0 | 0.00 | 0.00 | 0.00 | 40 | 1014.1 |
| 20260503205005 | 62 | 331 | 6.0 | 12.0 | 0.00 | 0.00 | 0.00 | 38 | 1014.1 |
| 20260503204504 | 62 | 263 | 6.0 | 12.0 | 0.00 | 0.00 | 0.00 | 38 | 1014.1 |
| 20260503204004 | 62 | 290 | 8.0 | 13.0 | 0.00 | 0.00 | 0.00 | 36 | 1014.1 |
| 20260503203005 | 62 | 269 | 9.0 | 14.0 | 0.00 | 0.00 | 0.00 | 36 | 1014.1 |
| 20260503202003 | 62 | 300 | 10.0 | 17.0 | 0.00 | 0.00 | 0.00 | 38 | 1014.2 |
| 20260503201504 | 62 | 284 | 7.0 | 15.0 | 0.00 | 0.00 | 0.00 | 36 | 1014.3 |
| 20260503201004 | 62 | 271 | 6.0 | 19.0 | 0.00 | 0.00 | 0.00 | 37 | 1014.4 |
| 20260503200504 | 62 | 302 | 10.0 | 18.0 | 0.00 | 0.00 | 0.00 | 40 | 1014.5 |
| 20260503194959 | 61 | 323 | 11.0 | 15.0 | 0.00 | 0.00 | 0.00 | 38 | 1014.6 |
| 20260503194502 | 61 | 267 | 9.0 | 19.0 | 0.00 | 0.00 | 0.00 | 37 | 1014.6 |
| 20260503194004 | 61 | 296 | 12.0 | 19.0 | 0.00 | 0.00 | 0.00 | 42 | 1014.7 |
| 20260503193504 | 61 | 334 | 7.0 | 13.0 | 0.00 | 0.00 | 0.00 | 40 | 1014.7 |
| 20260503193000 | 61 | 294 | 8.0 | 17.0 | 0.00 | 0.00 | 0.00 | 41 | 1014.9 |
| 20260503192502 | 60 | 302 | 9.0 | 18.0 | 0.00 | 0.00 | 0.00 | 38 | 1015.0 |
| 20260503192000 | 61 | 330 | 11.0 | 18.0 | 0.00 | 0.00 | 0.00 | 38 | 1015.0 |
| 20260503191000 | 60 | 305 | 8.0 | 15.0 | 0.00 | 0.00 | 0.00 | 42 | 1015.0 |
| 20260503190003 | 60 | 295 | 10.0 | 16.0 | 0.00 | 0.00 | 0.00 | 40 | 1015.2 |
| 20260503185505 | 60 | 338 | 11.0 | 16.0 | 0.00 | 0.00 | 0.00 | 41 | 1015.3 |
| 20260503185004 | 60 | 300 | 6.0 | 16.0 | 0.00 | 0.00 | 0.00 | 41 | 1015.4 |
| 20260503184505 | 60 | 309 | 8.0 | 17.0 | 0.00 | 0.00 | 0.00 | 40 | 1015.4 |
| 20260503184004 | 60 | 286 | 11.0 | 17.0 | 0.00 | 0.00 | 0.00 | 39 | 1015.5 |
| 20260503183005 | 59 | 290 | 12.0 | 18.0 | 0.00 | 0.00 | 0.00 | 40 | 1015.6 |
| 20260503182504 | 59 | 309 | 9.0 | 15.0 | 0.00 | 0.00 | 0.00 | 43 | 1015.7 |
| 20260503182005 | 59 | 275 | 11.0 | 19.0 | 0.00 | 0.00 | 0.00 | 40 | 1015.7 |
| 20260503181505 | 59 | 302 | 9.0 | 17.0 | 0.00 | 0.00 | 0.00 | 40 | 1015.7 |
| 20260503181004 | 59 | 341 | 9.0 | 16.0 | 0.00 | 0.00 | 0.00 | 42 | 1015.8 |
| 20260503180505 | 59 | 296 | 10.0 | 16.0 | 0.00 | 0.00 | 0.00 | 43 | 1015.8 |
| 20260503180002 | 58 | 317 | 8.0 | 15.0 | 0.00 | 0.00 | 0.00 | 44 | 1015.7 |
| 20260503175502 | 58 | 329 | 7.0 | 13.0 | 0.00 | 0.00 | 0.00 | 40 | 1015.7 |
| 20260503175000 | 58 | 284 | 7.0 | 14.0 | 0.00 | 0.00 | 0.00 | 41 | 1015.8 |
| 20260503174504 | 57 | 317 | 10.0 | 17.0 | 0.00 | 0.00 | 0.00 | 39 | 1015.9 |
| 20260503174004 | 57 | 313 | 10.0 | 18.0 | 0.00 | 0.00 | 0.00 | 39 | 1015.9 |
| 20260503173459 | 57 | 313 | 11.0 | 18.0 | 0.00 | 0.00 | 0.00 | 43 | 1015.9 |
| 20260503173000 | 57 | 308 | 10.0 | 19.0 | 0.00 | 0.00 | 0.00 | 43 | 1016.0 |
| 20260503172459 | 57 | 336 | 12.0 | 18.0 | 0.00 | 0.00 | 0.00 | 42 | 1016.0 |
| 20260503172001 | 57 | 292 | 9.0 | 15.0 | 0.00 | 0.00 | 0.00 | 42 | 1016.1 |
| 20260503171504 | 57 | 330 | 10.0 | 19.0 | 0.00 | 0.00 | 0.00 | 44 | 1016.1 |
| 20260503171000 | 57 | 309 | 13.0 | 19.0 | 0.00 | 0.00 | 0.00 | 42 | 1016.0 |
| 20260503170504 | 57 | 309 | 11.0 | 18.0 | 0.00 | 0.00 | 0.00 | 43 | 1016.0 |
| 20260503150959 | 54 | 296 | 13.0 | 22.0 | 0.00 | 0.00 | 0.00 | 48 | 1016.1 |
| 20260503150500 | 54 | 322 | 14.0 | 23.0 | 0.00 | 0.00 | 0.00 | 47 | 1016.1 |
| 20260503131000 | 51 | 312 | 14.0 | 21.0 | 0.00 | 0.00 | 0.00 | 55 | 1016.3 |